Location: Atlantic Beach
(40.5890°N, 73.7290°W)
Time: 13:24:18
(UTC+00:00)

NOSS 3-3 (C) - Pass Details

Date: 29 October 2020
Orbit: 827 x 1385 km, 63.5° (Epoch: 29 November)

Event Time Altitude Azimuth Distance (km) Brightness Sun altitude
Rises 23:24:18 0° 220° (SW) 3,391 7.5 -17.6°
Reaches altitude 10° 23:26:40 10° 223° (SW) 2,493 6.8 -18.0°
Maximum altitude 23:32:23 70° 307° (NW) 979 4.1 -19.1°
Enters shadow 23:38:42 11° 31° (NNE) 2,744 6.0 -20.3°
